Location: Haulchin
(50.3172°N, 3.4360°E)
Time: 10:51:12
(UTC+00:00)

Cosmos 724 - Pass Details

Date: 23 May 2024
Orbit: 864 x 930 km, 65.6° (Epoch: 14 June)

Event Time Altitude Azimuth Distance (km) Brightness Sun altitude
Exits shadow 00:12:03 32° 202° (SSW) 1,471 4.9 -18.8°
Maximum altitude 00:14:52 73° 125° (SE) 920 4.2 -18.7°
Drops below altitude 10° 00:20:41 10° 42° (NE) 2,524 7.5 -18.6°
Sets 00:23:10 0° 40° (NE) 3,461 8.4 -18.5°
